Simultaneous Nadir Overpasses (SNOs) Predictions

Prediction of SNOs between FY3D and TERRA Satellite Orbit:

Table of predicted SNOs for the next 14.0 days since TLE Epoch: 6/14/2024
Index Date (FY3D) Time (FY3D) Lat,Lon (FY3D) SZA (FY3D ) Date (TERRA) Time (TERRA) Lat,Lon (TERRA) SZA (TERRA ) Distance(km) Time Diff (sec)
1 06/16/2024 13:57:19 -75.73, 150.76 127.73 06/16/2024 13:57:57 -75.73, 150.84 127.73 2.08 38
2 06/16/2024 14:48:03 75.65, -41.69 52.20 06/16/2024 14:47:18 75.65, -41.72 52.19 1.07 45
3 06/19/2024 01:10:13 -75.75, -17.48 127.76 06/19/2024 01:11:12 -75.74, -17.49 127.77 1.08 59
4 06/19/2024 02:00:57 75.68, 150.06 52.17 06/19/2024 02:00:32 75.71, 150.09 52.20 3.09 25
5 06/21/2024 12:23:13 -76.05, 173.31 127.46 06/21/2024 12:24:23 -75.92, 174.68 127.60 39.95 70
6 06/21/2024 13:13:51 75.71, -18.21 52.19 06/21/2024 13:13:46 75.73, -18.18 52.22 2.85 5
7 06/21/2024 14:04:25 -75.19, 150.75 128.33 06/21/2024 14:03:18 -75.27, 148.20 128.25 72.84 67
8 06/24/2024 00:26:45 75.75, 173.49 52.26 06/24/2024 00:27:00 75.73, 173.48 52.25 1.48 15
9 06/24/2024 01:17:29 -75.69, -19.01 127.80 06/24/2024 01:16:24 -75.68, -19.04 127.81 1.92 65
10 06/26/2024 11:39:37 75.75, 5.32 52.34 06/26/2024 11:40:12 75.76, 5.20 52.35 3.40 35
11 06/26/2024 12:30:21 -75.69, 172.82 127.72 06/26/2024 12:29:36 -75.70, 172.68 127.71 3.76 45



Historial Predications of SNOs between FY3D and TERRA
